Location: Auttagershofen
(48.1940°N, 10.0237°E)
Time: 17:59:08
(UTC+00:00)

Cosmos 1461 - Pass Details

Date: 18 January 2026
Orbit: 426 x 502 km, 65.0° (Epoch: 16 February)

Event Time Altitude Azimuth Distance (km) Brightness Sun altitude
Rises 06:06:23 0° 223° (SW) 2,590 6.0 -9.4°
Reaches altitude 10° 06:08:33 10° 226° (SW) 1,717 5.1 -9.1°
Maximum altitude 06:12:23 69° 309° (NW) 550 2.6 -8.5°
Drops below altitude 10° 06:16:16 10° 34° (NE) 1,739 5.5 -7.9°
Sets 06:18:28 0° 37° (NE) 2,627 6.5 -7.5°
